SCP
0 0 0 0 0 0 0 0 0 0 0 0 0 0 0 0 0 0 0 0 0 0 0 0 0 0 0 0 0 0 0 0 0 0 0 0 1 1
0 0 0 0 0 0 0 0 0 0 0 0 0 0 0 0 0 0 0 0 0 0 0 0 0 0 0 0 0 0 0 0 0 0 0 0 0 0
0 0 0 0 0 0 0 0 0 0 0 0 0 0 0 0 0 0 0 0 0 0 0 0 0 0 0 0 0 0 0 0 0 0 0 0 0 0
0 0 0 0 0 0 0 0 0 0 0 0 0 0 0 0 0 0 0 0 0 0 0 0 0 0 0 0 0 0 0 0 0 0 0 0 0 0
0 0 0 0 0 0 0 0 0 0 0 0 0 0 0 0 0 0 0 0 0 0 0 0 0 0 0 0 0 0 0 0 0 0 0 0 0 0
0 0 0 0 0 0 0 0 0 0 0 0 0 0 0 0 0 0 0 0 0 0 0 0 0 0 0 0 0 0 0 0 0 0 0 0 0 0
0 0 0 0 0 0 0 0 0 0 0 0 0 0 0 0 0 0 0 0 0 0 0 0 0 0 0 0 0 0 0 0 0 0 0 0 0 0
0 0 0 0 0 0 0 0 0 0 0 0 0 0 0 0 0 0 0 0 0 0 0 0 0 0 0 0 0 0 0 0 0 0 0 0 0 0
0 0 0 0 0 0 0 0 0 0 0 0 0 0 0 0 0 0 0 0 0 0 0 0 0 0 0 0 0 0 0 0 0 0 0 0 0 0
0 0 0 0 0 0 0 0 0 0 0 0 0 0 0 0 0 0 0 0 0 0 0 0 0 0 0 0 0 0 0 0 0 0 0 0 0 0
0 0 0 0 0 0 0 0 0 0 0 0 0 0 0 0 0 0 0 0 0 0 0 0 0 0 0 0 0 0 0 0 0 0 0 0 0 0
0 0 0 0 0 0 0 0 0 0 0 0 0 0 0 0 0 0 0 0 0 0 0 0 0 0 0 0 0 0 0 0 0 0 0 0 0 0
0 0 0 0 0 0 0 0 0 0 0 0 0 0 0 0 0 0 0 0 0 0 0 0 0 0 0 0 0 0 0 0 0 0 0 0 0 0
0 0 0 0 0 0 0 0 0 0 0 0 0 0 0 0 0 0 0 0 0 0 0 0 0 0 0 0 0 0 0 0 0 0 0 0 0 0
0 0 0 0 0 0 0 0 0 0 0 0 0 0 0 0 0 0 0 0 0 0 0 0 0 0 0 0 0 0 0 0 0 0 0 0 0 0
0 0 0 0 0 0 0 0 0 0 0 0 0 0 0 0 0 0 0 0 0 0 0 0 0 0 0 0 0 0 0 0 0 0 0 0 0 0
0 0 0 0 0 0 0 0 0 0 0 0 0 0 0 0 0 0 0 0 0 0 0 0 0 0 0 0 0 0 0 0 0 0 0 0 0 0
0 0 0 0 0 0 0 0 0 0 0 0 0 0 0 0 0 0 0 0 0 0 0 0 0 0 0 0 0 0 0 0 0 0 0 0 0 0
0 0 0 0 0 0 0 0 0 0 0 0 0 0 0 0 0 0 0 0 0 0 0 0 0 0 0 0 0 0 0 0 0 0 0 0 0 0
0 0 0 0 0 0 0 0 0 0 0 0 0 0 0 0 0 0 0 0 0 0 0 0 0 0 0 0 0 0 0 0 0 0 0 0 0 0
0 0 0 0 0 0 0 0 0 0 0 0 0 0 0 0 0 0 0 0 0 0 0 0 0 0 0 0 0 0 0 0 0 0 0 0 0 0
0 0 0 0 0 0 0 0 0 0 0 0 0 0 0 0 0 0 0 0 0 0 0 0 0 0 0 0 0 0 0 0 0 0 0 0 0 0
0 0 0 0 0 0 0 0 0 0 0 0 0 0 0 0 0 0 0 0 0 0 0 0 0 0 0 0 0 0 0 0 0 0 0 0 0 0
Wind_Speed
2 2 2 2 2 2 2 3 3 4 5 3 2 3 3 3 4 3 4 6 7 7 7 7 8 7 8 8 8 9 8 9 9 9 9 9 9 9
1 1 2 2 2 2 2 2 3 4 5 3 3 3 3 3 4 4 4 6 7 7 7 7 7 7 8 8 8 8 8 8 8 9 9 9 9 9
1 2 2 2 2 2 2 2 3 3 5 4 3 3 3 3 3 3 3 4 4 7 7 7 7 7 8 8 8 8 8 8 8 9 9 10 10 9
3 3 3 2 3 2 2 3 3 3 4 5 4 3 3 3 3 3 4 3 3 6 7 7 7 8 8 8 7 7 7 8 8 8 9 9 9 9
3 4 4 3 4 3 3 3 3 3 3 4 4 3 2 2 3 3 4 3 3 4 6 6 7 7 7 7 7 8 7 7 8 8 8 8 9 9
3 4 4 4 4 4 3 3 3 3 3 3 4 3 3 2 2 3 4 3 3 3 4 5 6 7 7 7 7 7 7 7 7 7 7 7 8 8
3 3 3 4 5 4 3 3 3 3 2 3 4 3 3 2 3 3 4 4 3 2 2 3 3 3 4 6 7 7 7 7 7 7 7 7 7 8
3 3 3 3 4 5 6 6 5 4 4 3 4 5 5 4 3 3 4 3 4 2 2 4 3 4 4 4 7 8 8 7 7 7 7 7 7 8
3 3 3 3 3 3 5 6 5 6 7 5 6 6 6 5 4 5 5 5 5 3 2 5 3 5 4 5 9 8 7 7 7 7 7 7 7 7
3 3 3 3 3 3 3 4 4 4 5 5 6 6 6 5 5 6 6 5 4 2 2 4 3 4 4 4 7 7 7 6 6 6 7 7 7 7
3 3 3 4 5 5 3 4 4 4 4 6 7 7 9 9 6 3 3 4 4 3 2 2 2 3 3 3 4 6 6 6 6 7 7 7 8 7
2 3 4 5 6 6 3 3 5 5 3 4 4 6 6 6 7 5 4 4 3 3 2 1 1 2 3 3 2 2 3 5 7 7 8 8 7 3
3 3 3 6 7 7 5 4 6 5 4 4 4 4 3 3 3 4 4 4 5 4 3 2 2 2 2 4 3 2 2 2 3 4 6 7 7 4
3 3 3 6 7 7 5 5 6 5 2 3 3 3 3 4 3 4 4 5 5 6 5 4 3 3 3 4 4 3 2 2 3 3 3 6 6 6
3 5 6 6 6 5 5 6 4 2 2 3 4 4 3 4 3 3 4 4 4 5 4 5 4 4 4 5 4 4 3 3 3 3 3 3 3 2
2 3 5 5 4 4 3 3 2 2 3 3 4 4 3 3 3 3 3 3 4 4 3 4 5 5 4 5 5 5 3 3 2 3 3 3 2 2
1 1 1 1 1 2 2 2 2 2 2 3 3 3 3 4 4 3 3 3 3 4 4 3 3 3 4 4 4 4 4 3 3 3 2 3 3 2
1 1 2 2 2 2 3 3 2 2 3 3 3 3 4 4 4 3 3 3 4 4 4 3 2 2 2 2 5 4 3 3 2 2 2 3 4 3
0 1 2 2 2 3 3 3 3 3 2 3 3 3 4 4 4 4 3 3 4 4 3 2 2 1 2 4 3 3 3 2 1 2 2 3 4 4
1 2 2 2 3 3 3 3 3 3 2 3 3 3 3 4 4 4 4 4 4 4 4 2 2 3 4 3 3 3 3 3 2 3 2 2 3 5
2 2 2 2 2 3 3 3 3 3 3 3 3 4 3 4 4 4 4 5 5 4 4 4 4 4 2 0 1 2 2 3 4 3 2 2 3 2
2 2 3 3 3 3 3 3 3 3 3 3 3 3 4 4 5 5 4 4 4 4 5 4 2 1 1 2 3 3 2 2 3 5 5 4 3 3
3 3 3 3 3 3 3 3 4 4 3 3 3 4 4 4 4 4 4 4 4 4 3 3 2 1 1 2 2 2 3 2 2 2 3 5 6 7
Wind_Direction
235 238 242 245 239 232 218 208 214 248 263 254 252 239 241 256 266 257 262 278 284 284 283 285 286 286 288 292 294 297 299 301 304 306 304 303 303 298
241 244 263 264 268 251 241 234 229 225 251 251 256 263 259 267 275 268 262 281 280 282 282 283 284 286 287 289 292 295 296 298 303 305 306 305 304 304
256 247 260 272 267 256 251 247 244 235 250 270 270 267 254 258 270 272 270 254 259 277 282 284 286 288 289 290 293 295 294 297 300 303 303 304 303 307
253 249 253 254 260 262 250 248 250 250 248 268 276 271 261 253 257 270 284 273 258 272 277 284 288 290 291 292 294 296 298 299 300 300 301 301 303 304
249 248 247 242 250 256 252 247 250 257 248 258 276 276 274 281 280 283 281 267 273 276 276 280 282 287 291 293 295 298 299 298 297 297 297 300 301 303
258 254 250 242 244 246 248 246 248 253 257 260 268 276 275 281 282 282 288 270 275 289 279 282 285 286 285 289 293 295 296 296 296 297 298 299 298 300
261 262 263 259 258 254 253 249 243 245 251 258 266 273 269 269 266 271 276 283 274 267 268 274 277 275 278 281 286 286 288 291 291 293 295 295 296 297
262 269 272 262 267 274 270 265 253 241 240 248 261 262 268 268 272 266 277 284 282 247 265 275 260 263 267 260 275 280 282 285 287 289 291 293 293 293
260 266 274 275 269 266 276 278 269 257 247 244 253 260 270 271 273 272 266 265 267 260 265 273 259 262 265 270 272 269 276 284 285 285 287 289 290 289
261 262 267 276 271 279 278 276 266 257 250 245 249 261 266 271 262 264 269 279 280 261 236 268 270 268 278 264 263 268 278 282 285 291 295 295 293 289
269 275 274 270 275 286 277 271 278 280 275 266 269 275 281 283 281 283 279 281 285 273 249 247 273 297 287 266 259 266 274 280 288 295 295 296 297 292
273 273 271 276 285 288 270 256 265 278 287 292 284 283 281 279 278 260 253 259 276 277 237 233 257 317 302 285 274 272 274 276 285 290 295 298 301 299
262 267 269 280 285 285 281 261 264 281 282 280 284 285 282 274 269 264 257 248 254 261 245 239 245 255 253 284 288 267 259 276 290 290 291 294 293 291
254 263 272 285 287 290 286 285 287 287 277 282 284 285 285 284 280 276 272 264 256 258 252 238 240 239 253 270 273 278 277 274 279 282 284 291 290 288
254 268 281 291 294 296 296 298 294 274 270 272 276 281 282 286 292 292 292 282 276 264 253 248 239 241 240 250 258 262 283 278 258 270 287 282 278 282
273 278 290 296 298 303 306 306 285 265 262 265 272 280 288 289 287 284 285 291 290 288 266 254 244 236 250 248 245 258 255 251 260 273 285 287 285 274
252 265 274 282 293 302 303 294 290 279 270 272 277 286 289 289 289 287 279 282 275 284 298 299 280 256 244 242 243 247 254 258 260 271 284 289 275 267
253 238 254 258 266 275 285 290 285 282 279 278 275 274 280 283 289 289 277 270 272 276 283 288 304 318 322 285 233 239 243 253 265 257 259 277 281 278
232 248 255 258 264 269 270 271 276 282 284 280 278 278 278 279 279 281 279 274 275 276 277 272 259 255 270 286 283 245 230 242 258 265 254 251 265 274
237 245 255 259 261 263 266 272 278 282 280 278 278 277 277 279 276 272 273 272 274 278 283 276 251 245 243 255 271 284 260 237 233 248 264 284 288 297
255 256 258 256 257 259 262 265 267 271 274 274 275 277 274 271 273 272 270 275 273 268 269 270 268 274 272 248 266 280 278 265 264 255 249 275 298 298
256 258 262 258 255 255 259 261 265 268 270 270 274 274 273 271 272 272 268 266 269 267 268 275 290 282 232 227 250 264 283 303 306 304 290 273 246 239
251 254 256 256 256 254 253 254 257 262 263 264 268 271 271 274 275 271 268 265 268 275 276 276 282 272 259 247 254 260 263 277 296 315 312 307 296 290